YTMNJ's sites:

title views votes rating creation
?Erm, wtf? V8 847 7 (3.57)  2008-03-04
?Erm, wtf? V7 807 7 (2.71)  2008-02-01
?A red egg belts out a facemelter! 1,736 9 (3.11)  2008-01-31
?March of the Mingebags 854 7 (3.86)  2008-01-08
?Erm, wtf? V6 1,241 36 (3.33)  2008-01-03
?Erm, wtf? V5 407 7 (3.29)  2007-12-17
?The Master surprise attacks the Doctor and Martha ... 1,587 5 (2.00)  2007-12-13
?Erm, wtf? V4 1,301 46 (3.74)  2007-11-28
?Rose Tyler is returning to Doctor Who! 623 2 (3.00)  2007-11-27
?Shadow the Hedgehog has no class 625 2 (1.50)  2007-11-23
?Garry's Mod rave. With Still Alive Portal re... 2,489 10 (2.70)  2007-11-15
?OMG, secret nazi teapot! 880 13 (3.62)  2007-11-14
?This Summer, two disabled people will embark on a... 489 2 (3.00)  2007-11-08
?YTMND needs more cowbell. 774 14 (3.21)  2007-11-06
?Rose Tyler was just one in a long line... 700 11 (3.55)  2007-11-02
?Half-Life 2 Episode Three ending. Gordon wins. 1,117 7 (3.00)  2007-11-01
?The Doctor has one other weakness... 404 6 (2.33)  2007-10-31
?March of the Gnomes 1,778 36 (3.83)  2007-10-29
?What you see right before a llama dies... 526 8 (1.88)  2007-10-22
?Machine code boomkin. 504 5 (1.80)  2007-10-18
?Holy shit.... 289 5 (1.80)  2007-10-16
?Something terrible has happened to PHW... 486 4 (2.50)  2007-10-15
?(nsfw) Surprise buttsechs. Also glomph. 1,232 6 (3.50)  2007-10-14
?R.I.P Eli Vance. 1,319 6 (3.33)  2007-10-12
?Aphex Twin belts out a facemelter 790 7 (2.00)  2007-10-11
?The Doctor screams LOUD. 244 4 (2.50)  2007-10-11
?If Saturn had sentient life, it'd look like thi... 514 10 (2.90)  2007-10-08
?Samus has a new enemy... 1,364 8 (2.13)  2007-10-08
?Starcraft: Christmas 1,399 8 (3.75)  2007-10-08
?Go fat boi, go fat boi, go! 4,228 13 (3.77)  2007-09-28
?This is the leader of humanity... 487 5 (2.00)  2007-09-28
?Erm, wtf? V3 358 10 (3.20)  2007-09-28
?The Undead love to rock... 386 9 (1.67)  2007-09-25
?Yet Another Half-Life 2: Episode Two Spoiler 892 5 (2.60)  2007-09-24
?Domokun is... That Angry German Kid 883 8 (2.38)  2007-09-22
?Amy Rose will eat your soul! 1,481 3 (1.33)  2007-09-21
?Screaming Toothless Guy will eat your soul. 328 8 (1.00)  2007-09-20
?Hamtaro learns the terrible truth... 467 4 (3.50)  2007-09-10
?Doctor Who 300 629 9 (2.00)  2007-09-07
?What is love? Why, it's a Clockwork ... 1,687 13 (3.31)  2007-09-07
?The Flag of YTMND. For great patriotism! 511 7 (1.57)  2007-09-05
?Also... V2 272 4 (1.25)  2007-09-03
?Team Fortress 2 doesn't like smokers. 5,014 25 (3.48)  2007-09-02
?Black Hole Daisy returns. This time with 100% mor... 900 5 (2.00)  2007-08-08
?Breakdancing Cat dances to Blue Men: Rods and ... 4,320 10 (2.80)  2007-08-08
?The Doctor Is Hypnotised + Donna Noble Not Amu... 674 8 (1.88)  2007-08-07
?A new Halo enemy... 643 12 (1.25)  2007-08-05
?A message to Newdeedeedeer... 542 10 (1.40)  2007-08-04
?The next WoW expansion. 801 15 (1.73)  2007-08-03
?RE4. BOOMIES. 816 8 (2.88)  2007-08-03
?New York cabbies have strict guidelines. Number on... 225 3 (2.33)  2007-08-03
?Teabag: The only way Master Chief gets any boot... 354 4 (3.00)  2007-08-03
?(nsfw) So I hear you like to downvote. Well, if so... 486 8 (1.25)  2007-08-02
?Omg, secret nazi watermelon? 1,429 17 (3.53)  2007-08-02
?Excited emote rave. Dewd, you're in fo... 1,160 19 (2.53)  2007-08-01
?Heavy wants to know... 215 3 (1.33)  2007-07-31
?Davy L Jackson 363 3 (1.67)  2007-07-30
?Fatty Rave. SEX. Now I has yo attention, Warning:... 936 6 (3.17)  2007-07-28
?After Omega. Coming 30th December 2016. 702 3 (1.00)  2007-07-27
?RewardTMND: You win two beers! 588 8 (2.25)  2007-07-27
?Gman: He is coming. 975 7 (3.71)  2007-07-27
?New Half-Life 2: Episode Two enemy revealed. 813 6 (3.50)  2007-07-24
?Epic Furry Fashion Maneuver 1,345 10 (1.60)  2007-07-23
?The tragic truth about Leonidas... 497 4 (1.00)  2007-07-23
?Seagull Man is... WTF? 404 5 (1.40)  2007-07-23
?Seagull Man plays Tetris. 281 5 (2.60)  2007-07-23
?Epic giant duck roundhouse kicking Chuck Norris m... 1,104 9 (2.11)  2007-07-21
?Fan Fic Mad Max 4 834 3 (2.00)  2007-07-21
?R.I.P Fat Dog 1,072 9 (2.78)  2007-07-20
?(nsfw) The Lord of the Gays is... 653 7 (2.00)  2007-07-19
?What's up next for Japan... 890 6 (2.33)  2007-07-18
?Half-Life Two Episode Two: The Plot Thickens... 1,021 7 (1.86)  2007-07-17
?The Chuck Norris of the BBC... 925 10 (2.00)  2007-07-13
?Erm, wtf? V2 295 12 (2.08)  2007-07-13
?Erm, wtf? 1,168 9 (2.11)  2007-07-10
?Cat Skinners Must Die. 794 13 (2.85)  2007-07-07
?Tails + Tunak Tunak =... 1,153 6 (1.50)  2007-07-06
?Somehting wyrde... 455 11 (3.00)  2007-07-04
?(nsfw) Ravebow Horseman takes a leak 866 6 (1.17)  2007-06-26
?Scrubs KO 1,059 8 (1.75)  2007-06-23
?Unreleased Alien Game 464 2 (1.00)  2007-06-22
?Disco Ball is ridin' spinnaz 798 8 (2.88)  2007-06-21
?Is it me, or do Protoss look a bit like Draenei? 1,077 11 (1.91)  2007-06-19
?Cream and Tails. What a couple. 1,330 12 (1.50)  2007-06-18
?A message from the Doctor... 1,863 13 (3.54)  2007-06-15
?R.I.Ptmnd: Dumb rating 437 7 (1.14)  2007-06-12
?At least Tauren have chicken... 959 14 (1.07)  2007-06-11
?Push-Up Kittah pushes it to the limit 545 4 (1.75)  2007-06-11
?French fries have one weakness... 1,835 11 (2.00)  2007-06-08
?The Doctor has one weakness... 614 10 (1.30)  2007-06-07
?The Ring has yet another weakness... 578 3 (3.00)  2007-06-07
?Half-Life 2 Episode Two Major Spoiler. 871 9 (2.78)  2007-06-07
?Merry the Mage encounters some hawt bathing boo... 997 9 (1.67)  2007-06-07
?The real agony of undeath 2,203 10 (3.10)  2007-06-03
?Pokemon Mystery Dungeon 1337 Edition 985 7 (2.29)  2007-06-01
?Tails is a 1337 World of Warcraft player. Contains... 2,502 12 (2.33)  2007-06-01
?NEDM is a pokemon! Here's the proof. 2,241 9 (2.56)  2007-05-31
?Laughing owl. O rly? Ya rly! 1,697 6 (1.33)  2007-05-22
?Demonic Internet Baby 1,147 12 (2.42)  2007-05-21
?Stare for some time, and you'll see a gi... 327 5 (3.00)  2007-05-18
?RewardTMND: Owl Pie. 775 9 (2.56)  2007-05-15
?emot_piratesong. Contains Lazytown. 993 8 (1.88)  2007-05-14
?Murloc Rave V3: Third time lucky... 1,142 6 (3.00)  2007-05-11
?NEDM's Revenge: Top Gear Edition 1,498 11 (2.73)  2007-05-09
?Murloc Rave. This time, it's MORE INTE... 1,079 6 (1.33)  2007-05-09
?Oh my god, cannibal Tauren! 974 8 (2.13)  2007-05-08
?The Fat Dog Song 455 7 (1.57)  2007-05-08
?RewardTMND: Cookies 676 6 (3.00)  2007-05-07
?Batman in WoW 790 17 (1.53)  2007-05-06
?Little Britain Gmod 908 12 (3.00)  2007-05-05
?Alyx lives! Also, Gordon has a '69 Dod... 893 7 (2.71)  2007-05-04
?InteractivetMND V2: Move your eyes across the sc... 1,009 4 (1.00)  2007-05-04
?InteractivetMND: Move your eyes across the scree... 753 8 (2.75)  2007-05-04
???UnKnOwN?? of Facepunch is a Photokinetic Psy... 707 9 (1.11)  2007-05-02
?YTMND is loading, please stand by for music. 577 11 (3.27)  2007-05-01
?Omg, Secret Nazi Hindu Symbol! 1,844 14 (1.50)  2007-04-30
?How to make antigravity. Do not enter if you can&#... 514 13 (2.92)  2007-04-29
?Oh Sweet Lord, an animation error! 987 7 (2.00)  2007-04-29
?The Doctor is Hypnotized + Donna Noble Not Amu... 743 4 (2.25)  2007-04-29
?Zoidberg is an awesome god. 923 10 (2.70)  2007-04-27
?Dancing Ninja Gravity Cat Not Amused 936 8 (1.88)  2007-04-24
?Omg, Human-Dalek hybrid! 667 5 (2.40)  2007-04-22
?Doctor Who Gravity Cat in New New York 1,045 3 (1.33)  2007-04-15
?Black Hole Daisy 2,319 8 (2.38)  2007-04-12
?Gravity Cat gravity-crushes his opponent 485 7 (2.71)  2007-04-12
?Gravity Cat checks the pressure gauge 597 7 (2.86)  2007-04-06
?Mel Gibson is ridin' spinnaz 731 11 (1.73)  2007-04-04
?Gravity Cat gets some shades 774 6 (1.17)  2007-04-04
?AfroTMND: Afro Zoidberg! 500 8 (2.50)  2007-04-02
?AfroTMND: Afro Cat! 356 3 (2.67)  2007-04-01
?AfroTMND: Afro Sontaran! 598 3 (1.00)  2007-04-01
?Zomg, Cthulu descends upon us! 1,120 8 (2.38)  2007-03-29
?Gravity Cat finally achieves Enlightenment in Garry... 4,341 37 (3.97)  2007-03-20
?I'm Baaack! 1,490 6 (3.50)  2007-03-20
?This is the brother of Leeroy Jenkins... 562 5 (2.40)  2007-03-19
?Also... 663 14 (3.71)  2007-03-19
?Breen stares 1,077 5 (1.00)  2007-03-12
?Team Fortress 2 Benny Hill 3,538 17 (2.53)  2007-03-10
?Gordon Freeman has facial xpressions! 797 8 (1.63)  2007-03-09
?Ghost Rave (300% more nazi song than normal gh... 1,323 3 (2.67)  2007-03-08
?iCat headbanger 687 14 (3.14)  2007-03-05
?Hitler's Speech 776 2 (2.00)  2007-03-05
?Epic 4-D Rotation Maneuver 859 10 (2.90)  2007-03-04
?Cats love Vigilante 1,180 4 (3.00)  2007-02-27
?Lol, yoshi 2,424 7 (2.14)  2007-02-26
?Lol, enterprise (Much better version) 2,039 10 (3.60)  2007-02-16
?Scar-Life: The World Is Yours 662 6 (1.00)  2007-02-16
?(PTKFGS) Homo Soap 761 6 (3.17)  2007-02-16
?Shodan Approves! 921 3 (1.33)  2007-02-11
?Gman Moskau breakdance with his yappin' d... 1,011 14 (2.86)  2007-01-31
?Shoop Da Whoop Gmod 8,011 25 (3.48)  2007-01-31
?Sonic snuffs it 1,210 3 (3.00)  2007-01-30
?Shaun and his friends are vandals! 880 8 (3.13)  2007-01-29
?Screaming Camel is hungry! 847 19 (3.58)  2007-01-21
?Gordon is a Free Man 497 5 (1.40)  2007-01-20
?Gravity Cat vs NEDM MSP HD (it's an edit&... 1,421 21 (3.33)  2007-01-19
?The REAL what is Fresh Prince 1,153 12 (3.00)  2007-01-12
?Burger King pwnt Iron Chef 1,154 21 (2.24)  2007-01-08
?Headphone Cats like NEDM 853 11 (2.55)  2007-01-07
?Armless N64 kid 815 15 (1.07)  2007-01-07
?Laughing NEDM 537 13 (2.62)  2007-01-04
?Rockin' Muzak 478 5 (1.20)  2007-01-03
?Tails & Kleiner Merge 781 11 (2.45)  2006-12-30
?Gravity Cat vs NEDM (Paint Edition) 1,127 21 (3.24)  2006-12-30
?Fear the Pinkies 509 15 (2.87)  2006-12-30
?Doom 2 Source 621 4 (2.00)  2006-12-29
?Oh Noes! Satan! 594 6 (2.33)  2006-12-29
?You the man now Jack 536 6 (1.00)  2006-12-29